Location: Crescent
(42.8242°N, 73.7329°W)
Time: 05:53:35
(UTC+00:00)

Vanguard 3 - Pass Details

Date: 20 November 2024
Orbit: 507 x 3221 km, 33.4° (Epoch: 04 December)

Event Time Altitude Azimuth Distance (km) Brightness Sun altitude
Rises 21:54:54 0° 278° (W) 6,448 12.9 -5.4°
Reaches altitude 10° 22:01:04 10° 266° (W) 4,946 12.6 -6.5°
Maximum altitude 22:09:41 21° 225° (SW) 3,313 11.2 -8.0°
Drops below altitude 10° 22:15:52 10° 181° (S) 3,386 10.6 -9.0°
Sets 22:19:06 0° 164° (SSE) 3,967 10.7 -9.6°
